Location: B�rgermoos
(47.6500°N, 9.0667°E)
Time: 05:59:25
(UTC+00:00)

Cosmos 2150 Rocket - Pass Details

Date: 18 September 2020
Orbit: 749 x 808 km, 74.0° (Epoch: 27 October)

Event Time Altitude Azimuth Distance (km) Brightness Sun altitude
Rises 18:45:48 0° 178° (S) 3,257 7.1 -13.5°
Reaches altitude 10° 18:48:17 10° 171° (S) 2,343 6.2 -13.9°
Maximum altitude 18:53:14 40° 103° (ESE) 1,159 4.4 -14.7°
Drops below altitude 10° 18:58:16 10° 35° (NE) 2,390 6.4 -15.5°
Sets 19:00:49 0° 29° (NNE) 3,330 7.2 -15.9°
